Walhalla, ND

5:00 PM CST on February 13, 2016 (GMT -0600)
Walhalla

Weather History for K96D - January, 2013

Change the Weather History Date:

Sunday, January 6, 2013

  Actual Average (KGAF) Record (KGAF)
Temperature  
Mean Temperature 20 °F -  
Max Temperature 26 °F 13 °F 40 °F (1949)
Min Temperature 15 °F -4 °F -36 °F (1968)
Degree Days  
Heating Degree Days 46    
Moisture  
Dew Point 17 °F    
Average Humidity 93    
Maximum Humidity 100    
Minimum Humidity 74    
Precipitation  
Precipitation 0.00 in - - ()
Sea Level Pressure  
Sea Level Pressure 29.95 in    
Wind  
Wind Speed 7 mph (South)    
Max Wind Speed 22 mph    
Max Gust Speed 28 mph    
Visibility 10 miles    
Events      
Averages and records for this station are not official NWS values.
T = Trace of Precipitation, MM = Missing Value Source: NWS Daily Summary

Daily Weather History Graph

Daily Weather History Graph

Search for Another Location

Airport or City:

Trip Planner

Search our weather history database for the weather conditions in past years. The results will help you decide how hot, cold, wet, or windy it might be!

Date:

Astronomy

Jan. 06, 2013 Rise Set
Actual Time 8:24 AM CST 4:51 PM CST
Civil Twilight 7:47 AM CST 5:27 PM CST
Nautical Twilight 7:07 AM CST 6:07 PM CST
Astronomical Twilight 6:29 AM CST 6:46 PM CST
Moon 2:28 AM CST (1/6) 12:29 PM CST (1/6)
Length of Visible Light 9h 40m
Length of Day
8h 26m
Waning Crescent, 33% of the Moon is Illuminated
Jan 6
Waning Crescent
Jan 11
New
Jan 18
First Quarter
Jan 26
Full
Feb 3
Last Quarter

Hourly Weather History & Observations

Time (CST) Temp. Windchill Dew Point Humidity Pressure Visibility Wind Dir Wind Speed Gust Speed Precip Events Conditions
12:15 AM 17.6 °F - 15.8 °F 93% 30.05 in 10.0 mi Calm Calm - N/A   Overcast
12:35 AM 17.6 °F 12.3 °F 15.8 °F 93% 30.06 in 10.0 mi NW 3.5 mph - N/A   Overcast
12:55 AM 17.6 °F 12.3 °F 15.8 °F 93% 30.06 in 10.0 mi NW 3.5 mph - N/A   Overcast
1:35 AM 17.6 °F 7.3 °F 15.8 °F 93% 30.08 in 10.0 mi NW 8.1 mph - N/A   Overcast
1:55 AM 17.6 °F 8.2 °F 15.8 °F 93% 30.08 in 10.0 mi NW 6.9 mph - N/A   Overcast
2:15 AM 17.6 °F 7.3 °F 15.8 °F 93% 30.09 in 10.0 mi NNW 8.1 mph - N/A   Overcast
2:35 AM 17.6 °F 7.3 °F 15.8 °F 93% 30.10 in 10.0 mi NNW 8.1 mph - N/A   Overcast
2:55 AM 17.6 °F 7.3 °F 15.8 °F 93% 30.10 in 10.0 mi NNW 8.1 mph - N/A   Overcast
3:35 AM 17.6 °F 8.2 °F 15.8 °F 93% 30.11 in 10.0 mi North 6.9 mph - N/A   Overcast
3:55 AM 17.6 °F 8.2 °F 15.8 °F 93% 30.12 in 10.0 mi North 6.9 mph - N/A   Overcast
4:15 AM 17.6 °F 9.3 °F 15.8 °F 93% 30.12 in 10.0 mi North 5.8 mph - N/A   Overcast
4:35 AM 17.6 °F 9.3 °F 15.8 °F 93% 30.12 in 10.0 mi NNW 5.8 mph - N/A   Overcast
4:55 AM 17.6 °F 10.7 °F 15.8 °F 93% 30.12 in 10.0 mi North 4.6 mph - N/A   Overcast
5:35 AM 15.8 °F - 15.8 °F 100% 30.12 in 10.0 mi Calm Calm - N/A   Overcast
5:55 AM 15.8 °F - 15.8 °F 100% 30.12 in 10.0 mi Calm Calm - N/A   Overcast
6:15 AM 15.8 °F - 15.8 °F 100% 30.12 in 10.0 mi Calm Calm - N/A   Overcast
6:35 AM 15.8 °F - 15.8 °F 100% 30.12 in 10.0 mi Calm Calm - N/A   Overcast
6:55 AM 15.8 °F - 15.8 °F 100% 30.13 in 10.0 mi Calm Calm - N/A   Overcast
7:15 AM 15.8 °F - 15.8 °F 100% 30.13 in 10.0 mi Calm Calm - N/A   Overcast
7:35 AM 17.6 °F - 15.8 °F 93% 30.13 in 10.0 mi Calm Calm - N/A   Overcast
7:55 AM 17.6 °F - 15.8 °F 93% 30.12 in 10.0 mi Calm Calm - N/A   Overcast
8:35 AM 17.6 °F - 15.8 °F 93% 30.11 in 10.0 mi Calm Calm - N/A   Overcast
8:55 AM 17.6 °F 12.3 °F 15.8 °F 93% 30.10 in 10.0 mi SE 3.5 mph - N/A   Overcast
9:15 AM 17.6 °F 12.3 °F 15.8 °F 93% 30.10 in 10.0 mi SSE 3.5 mph - N/A   Overcast
9:35 AM 17.6 °F 10.7 °F 15.8 °F 93% 30.10 in 10.0 mi SSE 4.6 mph - N/A   Overcast
9:55 AM 17.6 °F 12.3 °F 15.8 °F 93% 30.10 in 10.0 mi SSE 3.5 mph - N/A   Overcast
10:15 AM 17.6 °F 8.2 °F 17.6 °F 100% 30.09 in 10.0 mi SSE 6.9 mph - N/A   Overcast
10:35 AM 17.6 °F 8.2 °F 17.6 °F 100% 30.08 in 10.0 mi South 6.9 mph - N/A   Overcast
10:55 AM 17.6 °F 5.7 °F 17.6 °F 100% 30.07 in - South 10.4 mph - N/A   Overcast
11:15 AM 19.4 °F 9.5 °F 17.6 °F 93% 30.06 in - South 8.1 mph - N/A   Overcast
11:35 AM 19.4 °F 9.5 °F 17.6 °F 93% 30.06 in - South 8.1 mph - N/A   Overcast
11:55 AM 19.4 °F 10.4 °F 17.6 °F 93% 30.05 in - South 6.9 mph - N/A   Overcast
12:15 PM 19.4 °F 9.5 °F 19.4 °F 100% 30.03 in - South 8.1 mph - N/A   Overcast
12:35 PM 19.4 °F 7.2 °F 19.4 °F 100% 30.02 in - South 11.5 mph - N/A   Overcast
12:55 PM 19.4 °F 5.5 °F 19.4 °F 100% 30.00 in 10.0 mi SSW 15.0 mph 19.6 mph N/A   Overcast
1:15 PM 21.2 °F 10.1 °F 19.4 °F 93% 29.98 in 10.0 mi South 10.4 mph - N/A   Overcast
1:35 PM 21.2 °F 9.5 °F 17.6 °F 86% 29.97 in 10.0 mi South 11.5 mph - N/A   Overcast
1:55 PM 21.2 °F 8.9 °F 19.4 °F 93% 29.95 in 10.0 mi South 12.7 mph 18.4 mph N/A   Overcast
2:15 PM 21.2 °F 9.5 °F 19.4 °F 93% 29.95 in 10.0 mi South 11.5 mph 18.4 mph N/A   Overcast
2:35 PM 21.2 °F 8.3 °F 17.6 °F 86% 29.93 in 10.0 mi South 13.8 mph - N/A   Overcast
2:55 PM 21.2 °F 8.9 °F 17.6 °F 86% 29.92 in - South 12.7 mph 16.1 mph N/A   Overcast
3:15 PM 21.2 °F 10.1 °F 17.6 °F 86% 29.92 in - South 10.4 mph 16.1 mph N/A   Overcast
3:35 PM 21.2 °F 10.1 °F 19.4 °F 93% 29.91 in - South 10.4 mph - N/A   Mostly Cloudy
3:55 PM 21.2 °F 9.5 °F 17.6 °F 86% 29.90 in - South 11.5 mph - N/A   Unknown
4:35 PM 19.4 °F 6.6 °F 19.4 °F 100% 29.86 in 10.0 mi South 12.7 mph - N/A   Clear
4:55 PM 19.4 °F 6.0 °F 19.4 °F 100% 29.84 in - South 13.8 mph 20.7 mph N/A   Unknown
5:15 PM 19.4 °F 6.6 °F 19.4 °F 100% 29.82 in - South 12.7 mph 19.6 mph N/A   Unknown
5:35 PM 19.4 °F 4.1 °F 19.4 °F 100% 29.80 in 10.0 mi SSE 18.4 mph 21.9 mph N/A   Mostly Cloudy
5:55 PM 19.4 °F 3.2 °F 19.4 °F 100% 29.78 in 10.0 mi SSE 20.7 mph 27.6 mph N/A   Mostly Cloudy
6:15 PM 19.4 °F 4.5 °F 19.4 °F 100% 29.77 in 10.0 mi South 17.3 mph 23.0 mph N/A   Partly Cloudy
6:35 PM 19.4 °F 4.1 °F 19.4 °F 100% 29.75 in 10.0 mi SSE 18.4 mph 21.9 mph N/A   Clear
6:55 PM 19.4 °F 2.8 °F 19.4 °F 100% 29.72 in 10.0 mi SSE 21.9 mph 27.6 mph N/A   Clear
7:15 PM 21.2 °F 7.8 °F 19.4 °F 93% 29.72 in 10.0 mi South 15.0 mph 27.6 mph N/A   Scattered Clouds
7:35 PM 21.2 °F 8.3 °F 19.4 °F 93% 29.72 in - South 13.8 mph 17.3 mph N/A   Mostly Cloudy
7:55 PM 19.4 °F 6.6 °F 19.4 °F 100% 29.71 in 10.0 mi South 12.7 mph - N/A   Overcast
8:15 PM 21.2 °F 10.1 °F 17.6 °F 86% 29.71 in 10.0 mi South 10.4 mph 16.1 mph N/A   Mostly Cloudy
8:35 PM 19.4 °F 7.2 °F 17.6 °F 93% 29.69 in 10.0 mi SE 11.5 mph 17.3 mph N/A   Mostly Cloudy
8:55 PM 21.2 °F 10.1 °F 17.6 °F 86% 29.68 in 10.0 mi South 10.4 mph - N/A   Partly Cloudy
9:15 PM 23.0 °F 9.6 °F 17.6 °F 80% 29.66 in 10.0 mi SSW 16.1 mph 21.9 mph N/A   Clear
10:15 PM 23.0 °F 9.2 °F 17.6 °F 80% 29.62 in 10.0 mi SSW 17.3 mph 24.2 mph N/A   Mostly Cloudy
10:35 PM 23.0 °F 11.1 °F 17.6 °F 80% 29.61 in 10.0 mi SW 12.7 mph - N/A   Mostly Cloudy
10:55 PM 24.8 °F 14.6 °F 17.6 °F 74% 29.61 in - SW 10.4 mph - N/A   Scattered Clouds
11:35 PM 24.8 °F 17.9 °F 19.4 °F 80% 29.60 in 10.0 mi SE 5.8 mph - N/A   Partly Cloudy
11:55 PM 26.6 °F - 19.4 °F 74% 29.59 in 10.0 mi Calm Calm - N/A   Clear